Fort Meade, MD

1:52 PM EDT on May 23, 2017 (GMT -0400)
Tipton

Weather History for KFME - February, 2013

Change the Weather History Date:

Thursday, February 7, 2013

  Actual Average (KBWI) Record (KBWI)
Temperature  
Mean Temperature 29 °F -  
Max Temperature 37 °F 39 °F 72 °F (2017)
Min Temperature 21 °F 24 °F 6 °F (1895)
Degree Days  
Heating Degree Days 36    
Moisture  
Dew Point 24 °F    
Average Humidity 76    
Maximum Humidity 93    
Minimum Humidity 52    
Precipitation  
Precipitation 0.00 in - - ()
Sea Level Pressure  
Sea Level Pressure 30.39 in    
Wind  
Wind Speed 2 mph (East)    
Max Wind Speed 9 mph    
Max Gust Speed -    
Visibility 10 miles    
Events      
Averages and records for this station are not official NWS values.
T = Trace of Precipitation, MM = Missing Value Source: NWS Daily Summary

Daily Weather History Graph

Daily Weather History Graph

Search for Another Location

Airport or City:

Trip Planner

Search our weather history database for the weather conditions in past years. The results will help you decide how hot, cold, wet, or windy it might be!

Date:

Astronomy

Feb. 07, 2013 Rise Set
Actual Time 7:07 AM EST 5:35 PM EST
Civil Twilight 6:39 AM EST 6:03 PM EST
Nautical Twilight 6:08 AM EST 6:34 PM EST
Astronomical Twilight 5:36 AM EST 7:06 PM EST
Moon 4:44 AM EST (2/7) 2:58 PM EST (2/7)
Length of Visible Light 11h 23m
Length of Day
10h 27m
Waning Crescent, 9% of the Moon is Illuminated
Feb 7
Waning Crescent
Feb 10
New
Feb 17
First Quarter
Feb 25
Full
Mar 4
Last Quarter

Hourly Weather History & Observations

Time (EST) Temp. Windchill Dew Point Humidity Pressure Visibility Wind Dir Wind Speed Gust Speed Precip Events Conditions
12:18 AM 24.8 °F - 21.2 °F 86% 30.38 in 10.0 mi Calm Calm - N/A   Clear
12:39 AM 23.0 °F - 21.2 °F 93% 30.39 in 10.0 mi Calm Calm - N/A   Clear
12:57 AM 23.0 °F - 21.2 °F 93% 30.39 in 10.0 mi Calm Calm - N/A   Clear
1:18 AM 23.0 °F - 21.2 °F 93% 30.41 in 10.0 mi Calm Calm - N/A   Clear
1:39 AM 23.0 °F - 21.2 °F 93% 30.41 in 10.0 mi Calm Calm - N/A   Clear
1:57 AM 23.0 °F - 21.2 °F 93% 30.42 in 10.0 mi Calm Calm - N/A   Clear
2:18 AM 23.0 °F - 21.2 °F 93% 30.42 in 10.0 mi Calm Calm - N/A   Clear
2:39 AM 23.0 °F - 21.2 °F 93% 30.42 in 10.0 mi Calm Calm - N/A   Clear
2:57 AM 23.0 °F - 21.2 °F 93% 30.42 in 10.0 mi Calm Calm - N/A   Clear
3:18 AM 23.0 °F - 21.2 °F 93% 30.42 in 10.0 mi Calm Calm - N/A   Clear
3:39 AM 21.2 °F - 19.4 °F 93% 30.41 in 10.0 mi Calm Calm - N/A   Clear
3:57 AM 23.0 °F - 21.2 °F 93% 30.40 in 10.0 mi Calm Calm - N/A   Clear
4:18 AM 23.0 °F - 21.2 °F 93% 30.40 in 10.0 mi Calm Calm - N/A   Clear
4:39 AM 23.0 °F - 21.2 °F 93% 30.41 in 10.0 mi Calm Calm - N/A   Clear
4:57 AM 23.0 °F - 21.2 °F 93% 30.41 in 10.0 mi Calm Calm - N/A   Clear
5:18 AM 23.0 °F - 21.2 °F 93% 30.42 in 10.0 mi Calm Calm - N/A   Clear
5:39 AM 23.0 °F - 21.2 °F 93% 30.42 in 10.0 mi Calm Calm - N/A   Clear
5:57 AM 23.0 °F - 21.2 °F 93% 30.43 in 10.0 mi Calm Calm - N/A   Clear
6:18 AM 23.0 °F - 21.2 °F 93% 30.44 in 10.0 mi Calm Calm - N/A   Clear
6:39 AM 24.8 °F - 23.0 °F 93% 30.45 in 10.0 mi Calm Calm - N/A   Clear
6:57 AM 26.6 °F - 23.0 °F 86% 30.45 in 10.0 mi Calm Calm - N/A   Scattered Clouds
7:18 AM 26.6 °F - 23.0 °F 86% 30.46 in 7.0 mi Calm Calm - N/A   Overcast
7:39 AM 26.6 °F - 24.8 °F 93% 30.46 in 7.0 mi Calm Calm - N/A   Overcast
7:57 AM 28.4 °F - 24.8 °F 86% 30.47 in 7.0 mi Calm Calm - N/A   Overcast
8:18 AM 28.4 °F - 26.6 °F 93% 30.47 in 7.0 mi Calm Calm - N/A   Scattered Clouds
8:39 AM 32.0 °F 28.7 °F 26.6 °F 80% 30.47 in 10.0 mi ENE 3.5 mph - N/A   Clear
9:00 AM 32.0 °F 27.5 °F 26.6 °F 80% 30.47 in 10.0 mi ENE 4.6 mph - N/A   Scattered Clouds
9:18 AM 32.0 °F - 26.6 °F 80% 30.48 in 10.0 mi Calm Calm - N/A   Scattered Clouds
10:00 AM 32.0 °F 25.6 °F 24.8 °F 75% 30.48 in 10.0 mi East 6.9 mph - N/A   Overcast
10:18 AM 33.8 °F 27.7 °F 24.8 °F 70% 30.47 in 10.0 mi East 6.9 mph - N/A   Mostly Cloudy
10:39 AM 33.8 °F 29.6 °F 23.0 °F 65% 30.47 in 10.0 mi East 4.6 mph - N/A   Mostly Cloudy
11:00 AM 33.8 °F 27.7 °F 23.0 °F 65% 30.47 in 10.0 mi ESE 6.9 mph - N/A   Mostly Cloudy
11:18 AM 33.8 °F 28.6 °F 23.0 °F 65% 30.46 in 10.0 mi ESE 5.8 mph - N/A   Overcast
11:39 AM 35.6 °F 29.9 °F 23.0 °F 60% 30.45 in 10.0 mi East 6.9 mph - N/A   Overcast
12:00 PM 35.6 °F 30.7 °F 23.0 °F 60% 30.44 in 10.0 mi East 5.8 mph - N/A   Overcast
12:18 PM 35.6 °F 28.6 °F 23.0 °F 60% 30.43 in 10.0 mi ESE 9.2 mph - N/A   Overcast
12:39 PM 35.6 °F 29.9 °F 21.2 °F 56% 30.42 in 10.0 mi SE 6.9 mph - N/A   Overcast
1:00 PM 35.6 °F 31.7 °F 23.0 °F 60% 30.41 in 10.0 mi ESE 4.6 mph - N/A   Overcast
1:18 PM 35.6 °F 29.9 °F 23.0 °F 60% 30.41 in 10.0 mi East 6.9 mph - N/A   Overcast
1:39 PM 35.6 °F 29.9 °F 23.0 °F 60% 30.40 in 10.0 mi ENE 6.9 mph - N/A   Overcast
2:00 PM 35.6 °F 29.9 °F 23.0 °F 60% 30.39 in 10.0 mi East 6.9 mph - N/A   Mostly Cloudy
2:18 PM 35.6 °F 30.7 °F 23.0 °F 60% 30.38 in 10.0 mi East 5.8 mph - N/A   Mostly Cloudy
2:39 PM 35.6 °F 29.9 °F 23.0 °F 60% 30.37 in 10.0 mi East 6.9 mph - N/A   Overcast
3:00 PM 35.6 °F 30.7 °F 23.0 °F 60% 30.36 in 10.0 mi East 5.8 mph - N/A   Overcast
3:18 PM 35.6 °F 28.6 °F 23.0 °F 60% 30.35 in 10.0 mi East 9.2 mph - N/A   Overcast
3:39 PM 37.4 °F 31.4 °F 23.0 °F 56% 30.34 in 10.0 mi East 8.1 mph - N/A   Mostly Cloudy
4:00 PM 37.4 °F 31.4 °F 21.2 °F 52% 30.34 in 10.0 mi East 8.1 mph - N/A   Mostly Cloudy
4:18 PM 37.4 °F 32.1 °F 23.0 °F 56% 30.33 in 10.0 mi East 6.9 mph - N/A   Scattered Clouds
4:39 PM 35.6 °F 29.9 °F 23.0 °F 60% 30.33 in 10.0 mi ESE 6.9 mph - N/A   Scattered Clouds
5:00 PM 35.6 °F 29.9 °F 23.0 °F 60% 30.33 in 10.0 mi East 6.9 mph - N/A   Clear
5:21 PM 35.6 °F 30.7 °F 23.0 °F 60% 30.34 in 10.0 mi East 5.8 mph - N/A   Scattered Clouds
5:39 PM 35.6 °F 30.7 °F 23.0 °F 60% 30.35 in 10.0 mi East 5.8 mph - N/A   Mostly Cloudy
6:00 PM 35.6 °F 31.7 °F 24.8 °F 65% 30.35 in 10.0 mi ENE 4.6 mph - N/A   Overcast
6:21 PM 35.6 °F 31.7 °F 24.8 °F 65% 30.35 in 10.0 mi East 4.6 mph - N/A   Overcast
6:39 PM 33.8 °F 30.8 °F 26.6 °F 75% 30.35 in 10.0 mi East 3.5 mph - N/A   Overcast
7:00 PM 35.6 °F 32.8 °F 26.6 °F 70% 30.35 in 10.0 mi East 3.5 mph - N/A   Overcast
7:21 PM 33.8 °F 29.6 °F 26.6 °F 75% 30.34 in 10.0 mi East 4.6 mph - N/A   Overcast
8:00 PM 33.8 °F 29.6 °F 28.4 °F 81% 30.34 in 10.0 mi ENE 4.6 mph - N/A   Mostly Cloudy
8:21 PM 35.6 °F 29.9 °F 28.4 °F 75% 30.33 in 10.0 mi East 6.9 mph - N/A   Overcast
8:39 PM 35.6 °F 28.6 °F 28.4 °F 75% 30.33 in 10.0 mi East 9.2 mph - N/A   Overcast
9:00 PM 35.6 °F 30.7 °F 28.4 °F 75% 30.32 in 10.0 mi ENE 5.8 mph - N/A   Overcast
9:21 PM 35.6 °F 29.9 °F 28.4 °F 75% 30.32 in 10.0 mi ENE 6.9 mph - N/A   Overcast
9:39 PM 35.6 °F 29.2 °F 28.4 °F 75% 30.31 in 10.0 mi ENE 8.1 mph - N/A   Overcast
10:00 PM 33.8 °F 27.0 °F 28.4 °F 81% 30.30 in 10.0 mi ENE 8.1 mph - N/A   Overcast
10:21 PM 33.8 °F 27.7 °F 28.4 °F 81% 30.29 in 10.0 mi ENE 6.9 mph - N/A   Overcast
10:39 PM 33.8 °F 26.4 °F 26.6 °F 75% 30.28 in 10.0 mi East 9.2 mph - N/A   Overcast
11:21 PM 33.8 °F 28.6 °F 26.6 °F 75% 30.25 in 10.0 mi ENE 5.8 mph - N/A   Overcast